Showing default

CELTEE 1, 41850

Orbit data source: Space-Track

CELTEE 1, 41850 is a payload satellite owned by AFRL/RV (US) in SSO that was launched on Fri, 11 Nov 2016 UTC via an ATLAS V 401 launch vehicle from the Air Force Western Test Range (AFWTR). Payload-class satellites include a variety of spacecraft equipped with specific instruments for various scientific and technological missions. These include communications satellites like Starlink; space stations such as the ISS; scientific satellites like the Hubble; Earth observation satellites from companies like Planet Labs, Umbra, and HawkEye 360; GPS; miniature CubeSats for education and research; and military/defense satellites.

Loading next visibility...
Identifier
41850, 2016-067C
Orbit
SSO
Country
Flag of USUS
Related business
Manufacturer
M42 Tech
Mission
Operational Defense Technology
Bus & Motor
CUBESAT 1U, Unknown motor
Mass
1 kg wet, 1 kg dry
Launch date (UTC)
2016-11-11 (9 years ago)
Launch vehicle
ATLAS V 401
Launch site
Air Force Western Test Range (AFWTR)
Object type
Payload
Rocket body
Debris
Shape & HBR
Box, 0.1 m
Radar Cross Section
0.015 m², Small (<0.1 m²)

Expand to show TLE details & history
Last TLE update: 5 hours ago

TLE from 5 hours ago
0 CELTEE 1
1 41850U 16067C   26123.88698130  .00005699  00000-0  27406-3 0  9996
2 41850  98.0727 347.4350 0002159  69.3966 290.7498 15.19247903519156
Epoch: 2026-05-03T21:17Z
TLE epoch observation values (Epoch: 2026-05-03T21:17:15.184Z)
Latitude
-0.00003°
Longitude
166.33765°
Altitude
510.655 km
Speed
7.609 km/s
True Right ascension
23h 09m 44s
True Declination
0° 00' 00"
Sunlit
Object was in daylight at epoch
Visualization orbit readout
Latitude
Unknown
Longitude
Unknown
Altitude
Unknown
Speed
Unknown
Apparent Right ascension
Unknown
Apparent Declination
Unknown
Sunlit
N/A
Visualization observer readout
Local Sidereal Time
10:26:22
Azimuth
Unknown
Elevation
Unknown
Doppler factor
Unknown
Orbital elements
Apogee altitude
506.595 km
Perigee altitude
503.623 km
Semi-major axis
6,883.246 km
Eccentricity
0.00022
Inclination
98.0727°
RAAN
347.435°
Arg. of periapsis
69.3966°
True anomaly
290.72666°
Mean anomaly
290.7498°
Eccentric anomaly
290.73823°
Mean motion
3.80061 °/min
Orbital period
94.72 mins
BSTAR
0.00027406
Loading maneuver chart data...
Computing Atmospheric mass density...
Loading historical data...
Loading historical data...
Loading historical data...
Loading historical data...
Loading historical data...
Loading historical data...
Loading historical data...

Documentation

Showing up to 5 results
|